Location: ??????
(30.5519°N, 47.7720°E)
Time: 18:01:06
(UTC+00:00)

OAO 1 - Pass Details

Date: 24 January 2021
Orbit: 773 x 784 km, 35.0° (Epoch: 01 March)

Event Time Altitude Azimuth Distance (km) Brightness Sun altitude
Rises 15:53:46 0° 288° (WNW) 3,253 8.8 -20.6°
Reaches altitude 10° 15:56:15 10° 289° (WNW) 2,326 7.9 -21.1°
Maximum altitude 16:01:46 88° 200° (SSW) 783 4.4 -22.3°
Enters shadow 16:03:19 49° 112° (ESE) 996 4.7 -22.6°
